1484622000.16,19837,4.88,73040.5,-19.03,-46.07,-46.27,0,*6D
1484622001.39,19838,4.88,73036.0,-19.03,-46.01,-46.21,0,*62
1484622002.69,19839,4.88,73038.5,-19.01,-46.07,-46.49,0,*69
1484622003.97,19840,4.88,73038.0,-19.07,-46.27,-46.49,0,*63
1484622005.25,19841,4.88,73036.8,-19.03,-46.07,-46.49,0,*64
1484622006.52,19842,4.88,73038.8,-19.07,-46.15,-46.49,0,*60
1484622007.8,19843,4.88,73040.5,-19.07,-46.07,-46.49,0,*62
1484622009.02,19844,4.88,73040.5,-19.03,-46.01,-46.21,0,*69
1484622010.27,19845,4.88,73038.5,-19.03,-46.07,-46.35,0,*6B
1484622011.52,19846,4.88,73036.5,-19.03,-46.01,-46.27,0,*6D
1484622012.77,19847,4.88,73036.5,-19.03,-46.01,-46.27,0,*6C
1484622014.0,19848,4.88,73040.3,-19.03,-46.01,-46.21,0,*65
1484622015.25,19849,4.88,73036.0,-19.03,-46.01,-46.41,0,*62
1484622016.47,19850,4.88,73040.8,-19.03,-46.01,-46.21,0,*6C
1484622017.72,19851,4.88,73042.8,-19.03,-45.87,-46.27,0,*66
1484622018.96,19852,4.88,73040.0,-19.07,-45.95,-46.15,0,*63
1484622020.24,19853,4.88,73040.5,-19.07,-46.07,-46.49,0,*63
1484622021.51,19854,4.88,73038.8,-19.07,-46.15,-46.49,0,*67
1484622022.76,19855,4.88,73040.5,-19.07,-46.15,-46.35,0,*6D
1484622024.01,19856,4.88,73038.8,-19.03,-45.81,-46.01,0,*63
1484622025.26,19857,4.88,73040.5,-19.07,-46.07,-46.35,0,*6C
1484622026.53,19858,4.88,73042.5,-19.07,-46.07,-46.27,0,*60
1484622027.75,19859,4.88,73038.3,-19.03,-45.87,-46.21,0,*68
1484622028.97,19860,4.88,73040.3,-19.07,-46.35,-46.55,0,*6F
1484622030.22,19861,4.88,73042.0,-19.07,-46.27,-46.55,0,*6D
1484622031.47,19862,4.88,73038.5,-19.07,-46.07,-46.35,0,*6A
1484622032.71,19863,4.88,73038.5,-19.07,-45.95,-46.15,0,*61
1484622033.96,19864,4.88,73040.5,-19.07,-46.15,-46.35,0,*6F
1484622035.21,19865,4.88,73038.8,-19.03,-46.07,-46.21,0,*6C
1484622036.45,19866,4.88,73038.8,-19.07,-45.95,-46.27,0,*65
1484622037.73,19867,4.88,73040.5,-19.07,-46.07,-46.15,0,*6D
1484622038.95,19868,4.88,73042.3,-19.03,-45.87,-46.21,0,*6A
1484622040.19,19869,4.88,73038.3,-19.07,-45.87,-46.07,0,*6B
1484622041.47,19870,4.88,73040.8,-19.07,-46.15,-46.49,0,*61
1484622042.74,19871,4.88,73038.3,-19.07,-46.27,-46.49,0,*61
1484622044.02,19872,4.88,73036.5,-19.07,-46.15,-46.49,0,*63
1484622045.27,19873,4.88,73036.3,-19.03,-46.01,-46.41,0,*6B
1484622046.52,19874,4.88,73038.3,-19.09,-46.15,-46.35,0,*60
1484622047.77,19875,4.88,73038.3,-19.09,-46.15,-46.21,0,*64
1484622049.0,19876,4.88,73038.5,-19.09,-45.95,-46.35,0,*69
1484622050.25,19877,4.88,73038.5,-19.09,-46.15,-46.35,0,*63
1484622051.52,19878,4.88,73038.5,-19.09,-46.15,-46.41,0,*6F
1484622052.75,19879,4.88,73038.5,-19.09,-46.01,-46.35,0,*68
1484622053.97,19880,4.88,73038.0,-19.09,-46.35,-46.55,0,*6F
1484622055.2,19881,4.88,73042.0,-19.09,-46.21,-46.55,0,*6B
1484622056.44,19882,4.88,73038.8,-19.09,-46.35,-46.41,0,*68
1484622057.69,19883,4.88,73038.5,-19.11,-46.01,-46.21,0,*61
1484622058.91,19884,4.88,73036.0,-19.09,-46.21,-46.55,0,*6E
1484622060.19,19885,4.88,73042.3,-19.11,-46.15,-46.21,0,*62
1484622061.41,19886,4.88,73040.5,-19.09,-46.01,-46.21,0,*6D
1484622062.67,19887,4.88,73036.0,-19.09,-46.01,-46.15,0,*6B
1484622063.92,19888,4.88,73042.0,-19.11,-46.01,-46.21,0,*6A
1484622065.16,19889,4.88,73042.0,-19.11,-46.01,-46.21,0,*6B
1484622066.41,19890,4.88,73036.0,-19.09,-46.15,-46.21,0,*6F
1484622067.64,19891,4.88,73038.0,-19.09,-46.01,-46.21,0,*6B
1484622068.92,19892,4.88,73040.3,-19.09,-46.15,-46.41,0,*6B
1484622070.14,19893,4.88,73038.3,-19.09,-46.01,-46.21,0,*69
1484622071.39,19894,4.88,73036.8,-19.09,-45.95,-46.15,0,*67
1484622072.67,19895,4.88,73034.3,-19.11,-46.15,-46.35,0,*66
1484622073.92,19896,4.88,73038.0,-19.09,-46.15,-46.35,0,*6C
1484622075.17,19897,4.88,73038.8,-19.09,-46.01,-46.15,0,*6A
1484622076.42,19898,4.88,73040.8,-19.11,-46.01,-46.35,0,*6E
1484622077.7,19899,4.88,73036.5,-19.09,-46.15,-46.15,0,*61
1484622078.95,19900,4.88,73040.3,-19.11,-46.01,-46.21,0,*6B
1484622080.2,19901,4.88,73038.5,-19.09,-46.15,-46.21,0,*66
1484622081.45,19902,4.88,73038.5,-19.11,-46.21,-46.55,0,*68
1484622082.75,19903,4.88,73042.0,-19.11,-46.15,-46.15,0,*6A
1484622083.97,19904,4.88,73036.0,-19.09,-46.21,-46.55,0,*67
1484622085.25,19905,4.88,73036.3,-19.11,-46.15,-46.35,0,*6E
1484622086.49,19906,4.88,73036.5,-19.09,-45.81,-46.21,0,*6F
1484622087.74,19907,4.88,73040.3,-19.11,-46.01,-46.21,0,*6C
1484622089.0,19908,4.88,73038.3,-19.11,-46.21,-46.41,0,*67
1484622090.25,19909,4.88,73038.8,-19.11,-46.21,-46.35,0,*65
1484622091.55,19910,4.88,73038.8,-19.11,-46.15,-46.41,0,*69
1484622092.83,19911,4.88,73042.3,-19.11,-46.15,-46.35,0,*6B
1484622094.07,19912,4.88,73040.0,-19.11,-46.01,-46.35,0,*6D
1484622095.3,19913,4.88,73040.0,-19.09,-46.01,-46.35,0,*65
1484622096.55,19914,4.88,73036.3,-19.11,-46.01,-46.21,0,*6E
1484622097.79,19915,4.88,73032.0,-19.11,-46.01,-46.21,0,*6F
1484622099.07,19916,4.88,73038.3,-19.11,-46.15,-46.21,0,*69
1484622100.36,19917,4.88,73038.0,-19.11,-45.81,-46.15,0,*61
1484622101.61,19918,4.88,73038.3,-19.11,-45.95,-46.01,0,*6E
1484622102.89,19919,4.88,73038.8,-19.11,-45.95,-46.15,0,*6A
1484622104.11,19920,4.88,73040.5,-19.09,-46.01,-46.21,0,*60
1484622105.36,19921,4.88,73036.8,-19.11,-46.01,-46.35,0,*6D
1484622106.58,19922,4.88,73040.3,-19.09,-45.95,-46.21,0,*6C
1484622107.85,19923,4.88,73040.5,-19.09,-45.73,-46.15,0,*62
1484622109.12,19924,4.88,73038.5,-19.11,-45.73,-46.01,0,*69
1484622110.37,19925,4.88,73038.0,-19.11,-46.01,-46.21,0,*6C
1484622111.64,19926,4.88,73042.3,-19.11,-45.73,-46.01,0,*6B
1484622112.86,19927,4.88,73036.5,-19.09,-45.95,-46.01,0,*6B
1484622114.09,19928,4.88,73038.8,-19.09,-46.01,-46.21,0,*68
1484622115.31,19929,4.88,73038.3,-19.09,-46.01,-46.21,0,*69
1484622116.56,19930,4.88,73036.3,-19.09,-45.95,-46.15,0,*68
1484622117.81,19931,4.88,73038.0,-19.09,-45.95,-46.15,0,*69
1484622119.08,19932,4.88,73036.3,-19.09,-45.81,-45.81,0,*61
1484622120.33,19933,4.88,73040.3,-19.09,-45.73,-46.01,0,*66
1484622121.58,19934,4.88,73038.8,-19.09,-46.15,-46.35,0,*65
1484622122.8,19935,4.88,73036.5,-19.09,-45.95,-46.35,0,*6F
1484622124.07,19936,4.88,73036.3,-19.09,-46.15,-46.41,0,*64
1484622125.31,19937,4.88,73042.3,-19.09,-45.81,-45.95,0,*61
1484622126.55,19938,4.88,73038.5,-19.09,-45.73,-45.95,0,*63
1484622127.8,19939,4.88,73038.8,-19.09,-45.61,-45.73,0,*69
1484622129.02,19940,4.88,73038.3,-19.09,-45.95,-46.01,0,*6A
1484622130.29,19941,4.88,73038.8,-19.11,-45.61,-45.81,0,*62
1484622131.53,19942,4.88,73038.8,-19.09,-45.73,-45.95,0,*6E
1484622132.78,19943,4.88,73038.0,-19.09,-45.73,-46.01,0,*61
1484622134.05,19944,4.88,73038.8,-19.09,-46.15,-46.41,0,*61
1484622135.33,19945,4.88,73040.5,-19.11,-46.01,-46.15,0,*6D
1484622136.6,19946,4.88,73042.8,-19.11,-45.73,-46.01,0,*6D
1484622137.85,19947,4.88,73038.8,-19.09,-45.73,-46.01,0,*65
1484622139.07,19948,4.88,73040.3,-19.07,-45.53,-45.87,0,*6B
1484622140.3,19949,4.88,73040.0,-19.07,-45.73,-45.87,0,*68
1484622141.55,19950,4.88,73042.0,-19.07,-45.95,-46.15,0,*60
1484622142.77,19951,4.88,73036.5,-19.07,-45.87,-45.95,0,*69
1484622143.98,19952,4.88,73040.3,-19.07,-45.67,-45.87,0,*67
1484622145.26,19953,4.88,73038.0,-19.07,-46.07,-46.07,0,*68
1484622146.5,19954,4.88,73036.3,-19.07,-45.95,-46.27,0,*65
1484622147.72,19955,4.88,73042.0,-19.07,-45.95,-46.35,0,*67
1484622148.95,19956,4.88,73038.5,-19.07,-45.73,-45.95,0,*65
1484622150.23,19957,4.88,73038.0,-19.07,-46.07,-46.27,0,*6E
1484622151.47,19958,4.88,73040.5,-19.07,-45.95,-46.15,0,*68
1484622152.72,19959,4.88,73042.5,-19.07,-45.95,-46.07,0,*6A
1484622153.93,19960,4.88,73040.5,-19.07,-45.87,-45.95,0,*6B
1484622155.18,19961,4.88,73040.5,-19.07,-45.87,-46.15,0,*61
1484622156.42,19962,4.88,73042.0,-19.07,-45.87,-46.07,0,*61
1484622157.67,19963,4.88,73036.3,-19.07,-45.87,-46.15,0,*63
1484622158.91,19964,4.88,73040.5,-19.07,-45.87,-46.15,0,*64
1484622160.16,19965,4.88,73042.8,-19.11,-46.01,-46.21,0,*68
1484622161.41,19966,4.88,73042.0,-19.09,-46.15,-46.21,0,*67
1484622162.66,19967,4.88,73038.5,-19.07,-45.95,-46.15,0,*64
1484622163.88,19968,4.88,73040.8,-19.07,-45.53,-45.87,0,*69
1484622165.12,19969,4.88,73042.3,-19.07,-45.73,-45.95,0,*69
1484622166.36,19970,4.88,73040.8,-19.03,-45.67,-46.07,0,*68
1484622167.6,19971,4.88,73036.0,-19.07,-45.73,-45.95,0,*60
1484622168.81,19972,4.88,73040.3,-19.07,-45.87,-45.95,0,*68
1484622170.06,19973,4.88,73046.3,-19.07,-45.95,-46.07,0,*62
1484622171.31,19974,4.88,73040.0,-19.07,-45.95,-46.15,0,*66
1484622172.55,19975,4.88,73036.3,-19.07,-45.87,-46.15,0,*64
1484622173.78,19976,4.88,73042.0,-19.03,-46.01,-46.21,0,*69
1484622175.05,19977,4.88,73038.3,-19.07,-46.07,-46.27,0,*6C
1484622176.29,19978,4.88,73036.0,-19.07,-46.07,-46.35,0,*60
1484622177.51,19979,4.88,73036.5,-19.07,-45.95,-46.35,0,*69
1484622178.76,19980,4.88,73036.5,-19.07,-46.07,-46.35,0,*67
1484622180.04,19981,4.88,73038.5,-19.07,-46.15,-46.49,0,*6E
1484622181.31,19982,4.88,73038.5,-19.07,-46.15,-46.49,0,*6D
1484622182.56,19983,4.88,73038.3,-19.09,-46.15,-46.35,0,*69
1484622183.79,19984,4.88,73038.5,-19.09,-46.01,-46.35,0,*6B
1484622185.04,19985,4.88,73038.8,-19.09,-46.15,-46.35,0,*6F
1484622186.31,19986,4.88,73038.5,-19.11,-46.21,-46.41,0,*61
1484622187.54,19987,4.88,73038.8,-19.09,-46.01,-46.35,0,*68
1484622188.81,19988,4.88,73040.8,-19.09,-46.15,-46.41,0,*61
1484622190.05,19989,4.88,73036.8,-19.11,-46.21,-46.55,0,*6B
1484622191.28,19990,4.88,73036.0,-19.09,-46.21,-46.55,0,*6A
1484622192.53,19991,4.88,73038.5,-19.09,-46.15,-46.35,0,*6A
1484622193.83,19992,4.88,73038.5,-19.11,-46.15,-46.41,0,*63
1484622195.08,19993,4.88,73036.3,-19.09,-46.35,-46.61,0,*6B
1484622196.32,19994,4.88,73038.5,-19.09,-46.35,-46.61,0,*6C
1484622197.58,19995,4.88,73040.8,-19.09,-46.41,-46.61,0,*6E
1484622198.8,19996,4.88,73036.5,-19.09,-46.21,-46.55,0,*6C
1484622200.08,19997,4.88,73040.8,-19.11,-46.15,-46.35,0,*65
1484622201.3,19998,4.88,73036.5,-19.09,-46.01,-46.21,0,*63
1484622202.55,19999,4.88,73038.5,-19.09,-46.21,-46.61,0,*64
1484622203.82,20000,4.88,73038.5,-19.11,-46.15,-46.21,0,*6D
1484622205.07,20001,4.88,73042.8,-19.09,-45.73,-46.01,0,*64
1484622206.34,20002,4.88,73038.8,-19.11,-45.95,-46.15,0,*63
1484622207.62,20003,4.88,73036.3,-19.09,-46.15,-46.41,0,*61
1484622208.89,20004,4.88,73038.8,-19.09,-46.15,-46.41,0,*66
1484622210.17,20005,4.88,73036.8,-19.11,-46.15,-46.55,0,*6B
1484622211.41,20006,4.88,73036.8,-19.11,-46.21,-46.55,0,*6F
1484622212.71,20007,4.88,73040.0,-19.11,-46.15,-46.41,0,*6C
1484622213.99,20008,4.88,73038.5,-19.11,-46.15,-46.55,0,*66
1484622215.24,20009,4.88,73036.8,-19.09,-46.15,-46.35,0,*68
1484622216.51,20010,4.88,73040.3,-19.11,-46.15,-46.35,0,*69
1484622217.81,20011,4.88,73040.8,-19.11,-46.15,-46.61,0,*69
1484622219.06,20012,4.88,73036.0,-19.11,-46.35,-46.55,0,*6F
1484622220.35,20013,4.88,73036.8,-19.11,-45.81,-46.15,0,*66
1484622221.6,20014,4.88,73042.0,-19.11,-45.95,-46.21,0,*63
1484622222.87,20015,4.88,73040.3,-19.11,-46.01,-46.15,0,*6B
1484622224.12,20016,4.88,73038.5,-19.11,-45.95,-46.01,0,*63
1484622225.4,20017,4.88,73038.3,-19.11,-46.15,-46.21,0,*6B
1484622226.65,20018,4.88,73038.5,-19.11,-46.01,-46.21,0,*61
1484622227.87,20019,4.88,73038.8,-19.09,-45.95,-46.21,0,*67
1484622229.12,20020,4.88,73036.8,-19.11,-46.01,-46.35,0,*6F
1484622230.38,20021,4.88,73038.5,-19.11,-45.81,-46.21,0,*60
1484622231.67,20022,4.88,73040.0,-19.11,-45.81,-46.15,0,*64
1484622232.95,20023,4.88,73040.8,-19.11,-45.95,-46.15,0,*60
1484622234.24,20024,4.88,73038.5,-19.11,-45.81,-46.15,0,*62
1484622235.49,20025,4.88,73036.8,-19.09,-45.81,-46.01,0,*6F
1484622236.73,20026,4.88,73036.8,-19.11,-45.95,-46.21,0,*62
1484622238.03,20027,4.88,73036.0,-19.11,-45.81,-46.15,0,*61
1484622239.28,20028,4.88,73038.8,-19.11,-45.61,-46.01,0,*65
1484622240.55,20029,4.88,73040.5,-19.11,-45.73,-46.01,0,*67
1484622241.81,20030,4.88,73036.0,-19.11,-45.81,-45.95,0,*6C
1484622243.07,20031,4.88,73040.0,-19.11,-45.81,-46.21,0,*61
1484622244.32,20032,4.88,73038.0,-19.11,-45.95,-46.21,0,*67
1484622245.59,20033,4.88,73036.5,-19.11,-45.81,-46.01,0,*61
1484622246.85,20034,4.88,73038.8,-19.11,-45.73,-45.95,0,*65
1484622248.09,20035,4.88,73042.0,-19.09,-45.73,-45.95,0,*6D
1484622249.33,20036,4.88,73036.8,-19.09,-45.73,-46.01,0,*60
1484622250.6,20037,4.88,73038.3,-19.11,-45.73,-46.01,0,*68
1484622251.85,20038,4.88,73036.8,-19.09,-45.73,-46.01,0,*6E
1484622253.09,20039,4.88,73040.0,-19.09,-45.73,-45.95,0,*61
1484622254.33,20040,4.88,73040.5,-19.09,-45.73,-45.95,0,*6F
1484622255.59,20041,4.88,73036.3,-19.09,-45.73,-45.81,0,*6B
1484622256.83,20042,4.88,73036.5,-19.09,-45.73,-45.95,0,*6D
1484622258.1,20043,4.88,73036.0,-19.11,-45.95,-46.15,0,*66
1484622259.34,20044,4.88,73040.0,-19.07,-45.73,-45.95,0,*65
1484622260.59,20045,4.88,73038.0,-19.09,-45.95,-46.15,0,*69
1484622261.84,20046,4.88,73042.0,-19.09,-45.81,-46.01,0,*6A
1484622263.05,20047,4.88,73038.3,-19.07,-45.67,-45.87,0,*60
1484622264.27,20048,4.88,73036.5,-19.07,-45.53,-45.95,0,*6B
1484622265.51,20049,4.88,73042.3,-19.07,-45.73,-45.95,0,*68
1484622266.75,20050,4.88,73036.3,-19.09,-45.73,-45.95,0,*6E
1484622267.99,20051,4.88,73040.5,-19.09,-45.73,-46.01,0,*61
1484622269.24,20052,4.88,73038.0,-19.09,-45.61,-45.81,0,*6A
1484622270.49,20053,4.88,73038.0,-19.09,-45.61,-45.81,0,*6B
1484622271.71,20054,4.88,73038.0,-19.09,-45.61,-45.95,0,*69
1484622272.93,20055,4.88,73040.0,-19.07,-45.67,-45.87,0,*63
1484622274.17,20056,4.88,73036.5,-19.07,-45.87,-46.15,0,*66
1484622275.41,20057,4.88,73042.3,-19.03,-45.81,-45.87,0,*6D
1484622276.65,20058,4.88,73038.8,-19.07,-45.73,-45.87,0,*6B
1484622277.88,20059,4.88,73040.5,-19.07,-45.73,-45.95,0,*69
1484622279.1,20060,4.88,73038.0,-19.07,-45.67,-45.87,0,*65
1484622280.34,20061,4.88,73036.8,-19.07,-45.87,-46.07,0,*61
1484622281.59,20062,4.88,73036.5,-19.07,-46.07,-46.35,0,*68
1484622282.86,20063,4.88,73038.0,-19.07,-45.73,-46.15,0,*6B
1484622284.09,20064,4.88,73038.8,-19.07,-45.73,-45.87,0,*64
1484622285.32,20065,4.88,73044.0,-19.03,-45.67,-46.01,0,*69
1484622286.56,20066,4.88,73038.0,-19.07,-45.95,-46.07,0,*65
1484622287.8,20067,4.88,73040.3,-19.07,-45.73,-45.95,0,*64
1484622289.07,20068,4.88,73038.3,-19.07,-45.73,-46.07,0,*63
1484622290.3,20069,4.88,73036.3,-19.03,-45.73,-45.95,0,*6E
1484622291.54,20070,4.88,73036.5,-19.07,-45.67,-45.73,0,*6F
1484622292.77,20071,4.88,73036.0,-19.07,-45.53,-45.87,0,*62
1484622294.0,20072,4.88,73038.3,-19.07,-45.73,-45.95,0,*60
1484622295.23,20073,4.88,73038.0,-19.03,-45.67,-46.01,0,*6E
1484622296.5,20074,4.88,73038.0,-19.09,-45.81,-46.15,0,*6E
1484622297.75,20075,4.88,73038.0,-19.09,-46.15,-46.55,0,*65
1484622299.02,20076,4.88,73036.5,-19.07,-46.07,-46.49,0,*66
1484622300.29,20077,4.88,73040.8,-19.07,-45.73,-46.07,0,*6D
1484622301.5,20078,4.88,73038.5,-19.07,-45.67,-45.87,0,*6C
1484622302.73,20079,4.88,73042.3,-19.07,-45.53,-45.95,0,*69
1484622303.96,20080,4.88,73036.5,-19.07,-45.47,-45.67,0,*67
1484622305.18,20081,4.88,73036.0,-19.03,-45.41,-45.67,0,*64
1484622306.39,20082,4.88,73038.5,-19.07,-45.67,-45.95,0,*6A
1484622307.61,20083,4.88,73040.0,-19.07,-45.67,-45.95,0,*6B
1484622308.86,20084,4.88,73038.8,-19.07,-45.53,-45.73,0,*63
1484622310.1,20085,4.88,73040.3,-19.03,-45.61,-45.81,0,*6A
1484622311.32,20086,4.88,73042.3,-19.03,-45.67,-45.87,0,*69
1484622312.54,20087,4.88,73036.3,-19.03,-45.61,-45.87,0,*6E
1484622313.76,20088,4.88,73042.8,-19.03,-45.41,-45.67,0,*6D
1484622314.97,20089,4.88,73040.5,-19.03,-45.41,-45.67,0,*6C
1484622316.24,20090,4.88,73036.3,-19.03,-45.47,-45.81,0,*6A
1484622317.46,20091,4.88,73036.8,-19.03,-45.61,-45.87,0,*69
1484622318.74,20092,4.88,73042.3,-19.03,-45.47,-45.81,0,*68
1484622320.01,20093,4.88,73040.3,-19.03,-45.81,-46.07,0,*6E
1484622321.25,20094,4.88,73038.5,-19.03,-45.61,-45.81,0,*6A
1484622322.5,20095,4.88,73040.0,-19.01,-45.87,-46.21,0,*68
1484622323.72,20096,4.88,73036.8,-19.03,-45.87,-46.21,0,*69
1484622324.96,20097,4.88,73036.8,-19.07,-45.95,-46.27,0,*69
1484622326.21,20098,4.88,73036.0,-19.03,-45.87,-46.07,0,*63
1484622327.48,20099,4.88,73042.5,-19.07,-45.73,-46.15,0,*6E
1484622328.7,20100,4.88,73040.3,-19.03,-45.87,-46.21,0,*67
1484622329.97,20101,4.88,73036.5,-19.03,-45.81,-46.07,0,*64
1484622331.21,20102,4.88,73038.5,-19.03,-45.67,-46.07,0,*6F
1484622332.49,20103,4.88,73036.0,-19.03,-45.81,-46.07,0,*66
1484622333.71,20104,4.88,73036.8,-19.03,-46.01,-46.21,0,*6E
1484622334.96,20105,4.88,73036.0,-19.07,-46.07,-46.35,0,*68
1484622336.2,20106,4.88,73036.3,-19.07,-46.07,-46.35,0,*6B
1484622337.45,20107,4.88,73036.8,-19.07,-45.87,-46.15,0,*63
1484622338.66,20108,4.88,73038.5,-19.07,-45.67,-45.95,0,*69
1484622339.88,20109,4.88,73038.8,-19.07,-45.67,-45.87,0,*6B
1484622341.13,20110,4.88,73038.5,-19.03,-46.01,-46.27,0,*6D
1484622342.38,20111,4.88,73036.8,-19.07,-46.15,-46.35,0,*6E
1484622343.6,20112,4.88,73038.5,-19.03,-45.87,-46.01,0,*66
1484622344.85,20113,4.88,73038.3,-19.07,-45.87,-46.27,0,*67
1484622346.09,20114,4.88,73038.0,-19.07,-45.47,-45.87,0,*65
1484622347.35,20115,4.88,73038.3,-19.07,-45.73,-46.15,0,*6B
1484622348.63,20116,4.88,73034.8,-19.07,-46.07,-46.27,0,*69
1484622349.87,20117,4.88,73038.8,-19.07,-46.07,-46.55,0,*6D
1484622351.12,20118,4.88,73038.5,-19.07,-46.07,-46.55,0,*62
1484622352.39,20119,4.88,73038.3,-19.07,-46.15,-46.49,0,*6D
1484622353.67,20120,4.88,73038.0,-19.07,-46.07,-46.49,0,*64
1484622354.91,20121,4.88,73038.0,-19.07,-45.87,-46.07,0,*64
1484622356.16,20122,4.88,73036.5,-19.07,-45.95,-46.27,0,*66
1484622357.42,20123,4.88,73034.8,-19.07,-45.81,-46.15,0,*63
1484622358.67,20124,4.88,73038.5,-19.07,-46.07,-46.55,0,*6D
1484622359.94,20125,4.88,73036.0,-19.07,-46.07,-46.49,0,*61
1484622361.16,20126,4.88,73036.8,-19.07,-45.95,-46.35,0,*61
1484622362.43,20127,4.88,73036.8,-19.07,-46.07,-46.27,0,*6B
1484622363.65,20128,4.88,73036.0,-19.07,-45.95,-46.35,0,*6F
1484622364.92,20129,4.88,73040.5,-19.03,-45.81,-46.07,0,*6E
1484622366.16,20130,4.88,73040.0,-19.07,-45.87,-46.15,0,*67
1484622367.38,20131,4.88,73036.5,-19.07,-45.95,-46.21,0,*62
1484622368.6,20132,4.88,73036.5,-19.09,-46.21,-46.55,0,*60
1484622369.86,20133,4.88,73038.3,-19.09,-46.15,-46.55,0,*66
1484622371.08,20134,4.88,73038.0,-19.09,-45.95,-46.35,0,*6C
1484622372.3,20135,4.88,73036.8,-19.09,-45.95,-46.35,0,*6D
1484622373.57,20136,4.88,73042.3,-19.09,-46.15,-46.41,0,*66
1484622374.85,20137,4.88,73038.8,-19.09,-46.15,-46.41,0,*67
1484622376.12,20138,4.88,73038.8,-19.09,-46.15,-46.61,0,*6A
1484622377.37,20139,4.88,73040.3,-19.09,-46.15,-46.55,0,*6C
1484622378.67,20140,4.88,73034.8,-19.11,-46.15,-46.41,0,*6E
1484622379.92,20141,4.88,73036.8,-19.09,-46.15,-46.55,0,*63
1484622381.17,20142,4.88,73032.3,-19.11,-46.01,-46.55,0,*6C
1484622382.45,20143,4.88,73034.5,-19.11,-46.15,-46.55,0,*68
1484622383.7,20144,4.88,73032.8,-19.09,-46.15,-46.55,0,*66
1484622385.0,20145,4.88,73032.8,-19.11,-46.15,-46.41,0,*6B
1484622386.27,20146,4.88,73034.8,-19.11,-46.15,-46.55,0,*6D
1484622387.52,20147,4.88,73032.3,-19.11,-45.95,-46.35,0,*61
1484622388.77,20148,4.88,73038.8,-19.11,-46.35,-46.55,0,*61
1484622390.01,20149,4.88,73036.8,-19.11,-46.21,-46.55,0,*65
1484622391.28,20150,4.88,73038.3,-19.11,-46.01,-46.41,0,*6A
1484622392.53,20151,4.88,73038.3,-19.11,-45.95,-46.21,0,*63
1484622393.83,20152,4.88,73038.5,-19.11,-46.15,-46.41,0,*6D
1484622395.05,20153,4.88,73036.0,-19.09,-46.21,-46.55,0,*67
1484622396.32,20154,4.88,73038.8,-19.11,-46.15,-46.55,0,*6E
1484622397.57,20155,4.88,73038.3,-19.11,-46.21,-46.55,0,*68
1484622398.84,20156,4.81,73032.5,-19.11,-45.41,-45.81,0,*64
1484622400.08,20157,4.88,73038.5,-19.09,-45.53,-45.73,0,*62
1484622401.35,20158,4.88,73036.5,-19.11,-45.73,-46.01,0,*60
1484622402.57,20159,4.88,73036.3,-19.09,-45.61,-45.95,0,*65
1484622403.84,20160,4.88,73036.0,-19.11,-45.73,-46.01,0,*6B
1484622405.11,20161,4.88,73038.8,-19.11,-45.81,-46.01,0,*67
1484622406.33,20162,4.88,73036.3,-19.09,-45.95,-46.21,0,*6A
1484622407.56,20163,4.88,73036.5,-19.09,-46.01,-46.35,0,*60
1484622408.82,20164,4.88,73040.3,-19.11,-45.81,-46.21,0,*60
1484622410.06,20165,4.88,73040.8,-19.09,-45.73,-46.21,0,*65
1484622411.33,20166,4.88,73040.8,-19.13,-45.81,-46.15,0,*67
1484622412.58,20167,4.88,73036.0,-19.11,-46.01,-46.35,0,*6D
1484622413.8,20168,4.88,73036.8,-19.09,-46.01,-46.21,0,*6E
1484622415.05,20169,4.88,73036.5,-19.13,-46.15,-46.21,0,*61
1484622416.3,20170,4.88,73042.5,-19.11,-46.01,-46.35,0,*6B
1484622417.55,20171,4.88,73036.5,-19.11,-46.01,-46.35,0,*6A
1484622418.8,20172,4.88,73040.5,-19.11,-46.01,-46.21,0,*6C
1484622420.07,20173,4.88,73038.3,-19.11,-46.15,-46.35,0,*6D
1484622421.34,20174,4.88,73038.8,-19.13,-45.81,-46.15,0,*64
1484622422.61,20175,4.88,73038.8,-19.13,-45.81,-46.15,0,*65
1484622423.88,20176,4.88,73036.5,-19.13,-45.81,-46.15,0,*66
1484622425.15,20177,4.88,73038.8,-19.11,-45.95,-46.15,0,*60
1484622426.44,20178,4.88,73038.5,-19.11,-45.81,-46.15,0,*6A
1484622427.69,20179,4.81,73034.3,-19.11,-45.95,-46.21,0,*69
1484622428.96,20180,4.88,73038.3,-19.11,-45.81,-46.01,0,*68
1484622430.23,20181,4.88,73036.0,-19.11,-45.73,-46.01,0,*64
1484622431.52,20182,4.88,73038.5,-19.11,-45.81,-46.15,0,*6F
1484622432.79,20183,4.88,73036.5,-19.13,-45.81,-46.15,0,*6C
1484622434.08,20184,4.88,73036.5,-19.11,-45.81,-46.15,0,*69
1484622435.35,20185,4.88,73038.3,-19.11,-45.73,-46.01,0,*60
1484622436.61,20186,4.88,73038.5,-19.11,-45.73,-45.95,0,*6D
1484622437.89,20187,4.88,73040.5,-19.11,-45.53,-45.81,0,*6B
1484622439.14,20188,4.88,73040.0,-19.11,-45.53,-45.95,0,*61
1484622440.4,20189,4.88,73036.8,-19.11,-45.73,-46.01,0,*6C
1484622441.67,20190,4.88,73036.0,-19.11,-45.73,-46.01,0,*64
1484622442.9,20191,4.88,73036.3,-19.09,-45.95,-46.21,0,*66
1484622444.14,20192,4.88,73036.0,-19.11,-45.95,-46.21,0,*6C
1484622445.36,20193,4.88,73042.8,-19.09,-46.01,-46.35,0,*6F
1484622446.64,20194,4.88,73042.0,-19.11,-46.15,-46.21,0,*61
1484622447.9,20195,4.88,73040.8,-19.11,-45.73,-46.21,0,*63
1484622449.14,20196,4.88,73036.5,-19.09,-45.81,-46.21,0,*64
1484622450.36,20197,4.88,73038.0,-19.09,-45.61,-45.95,0,*67
1484622451.64,20198,4.88,73038.8,-19.11,-45.53,-45.81,0,*65
1484622452.91,20199,4.88,73038.3,-19.11,-45.53,-45.81,0,*64
1484622454.17,20200,4.88,73038.0,-19.11,-45.73,-45.95,0,*60
1484622455.44,20201,4.88,73038.3,-19.11,-45.73,-46.01,0,*6F
1484622456.71,20202,4.88,73042.8,-19.11,-45.73,-45.95,0,*62
1484622457.95,20203,4.88,73038.5,-19.11,-45.61,-45.95,0,*60
1484622459.2,20204,4.88,73038.3,-19.09,-45.95,-46.15,0,*6E
1484622460.47,20205,4.88,73036.8,-19.11,-45.81,-46.01,0,*66
1484622461.75,20206,4.88,73036.8,-19.11,-45.53,-45.81,0,*61
1484622462.99,20207,4.88,73036.8,-19.09,-45.41,-45.81,0,*6A
1484622464.26,20208,4.88,73042.0,-19.11,-45.53,-45.73,0,*62
1484622465.53,20209,4.88,73040.8,-19.11,-45.53,-45.81,0,*6E
1484622466.79,20210,4.88,73038.3,-19.09,-45.53,-45.81,0,*6F
1484622468.06,20211,4.88,73038.8,-19.11,-45.61,-45.81,0,*66
1484622469.28,20212,4.88,73036.0,-19.09,-45.61,-45.95,0,*69
1484622470.52,20213,4.88,73038.5,-19.09,-45.61,-45.73,0,*60
1484622471.77,20214,4.88,73036.5,-19.09,-45.61,-45.81,0,*6A
1484622473.0,20215,4.81,73034.0,-19.07,-45.73,-45.95,0,*63
1484622474.25,20216,4.88,73042.0,-19.03,-45.67,-46.07,0,*69
1484622475.5,20217,4.88,73038.0,-19.07,-45.87,-46.15,0,*61
1484622476.72,20218,4.88,73038.3,-19.07,-45.53,-45.87,0,*6F
1484622477.97,20219,4.88,73036.3,-19.09,-45.73,-46.01,0,*6F
1484622479.21,20220,4.88,73042.3,-19.07,-45.47,-45.87,0,*61
1484622480.43,20221,4.88,73038.5,-19.09,-45.53,-45.95,0,*68
1484622481.66,20222,4.88,73040.0,-19.09,-45.53,-45.95,0,*6B
1484622482.88,20223,4.88,73038.3,-19.09,-45.41,-45.61,0,*62
1484622484.14,20224,4.88,73040.0,-19.07,-45.47,-45.73,0,*6E
1484622485.36,20225,4.88,73038.3,-19.07,-45.67,-45.95,0,*65
1484622486.6,20226,4.88,73042.8,-19.07,-45.67,-46.07,0,*6E
1484622487.82,20227,4.88,73038.8,-19.07,-45.53,-45.87,0,*63
1484622489.05,20228,4.88,73036.3,-19.07,-45.53,-45.87,0,*6C
1484622490.26,20229,4.88,73038.5,-19.07,-45.33,-45.53,0,*62
1484622491.47,20230,4.88,73036.5,-19.07,-45.33,-45.67,0,*6D
1484622492.7,20231,4.88,73036.5,-19.03,-45.21,-45.61,0,*6D
1484622493.91,20232,4.88,73040.0,-19.07,-45.33,-45.67,0,*6F
1484622495.13,20233,4.88,73038.5,-19.03,-45.13,-45.41,0,*6C
1484622496.38,20234,4.88,73036.8,-19.07,-45.27,-45.53,0,*6B
1484622497.63,20235,4.88,73036.0,-19.03,-45.21,-45.47,0,*6D
1484622498.89,20236,4.88,73036.5,-19.03,-45.27,-45.61,0,*6C